Location: Tucson
(32.2217°N, 110.9265°W)
Time: 02:06:00
(UTC-07:00)

Tiros 1 - Pass Details

Date: 26 October 2021
Orbit: 630 x 663 km, 48.4° (Epoch: 07 December)

Event Time Altitude Azimuth Distance (km) Brightness Sun altitude
Rises 14:26:49 0° 318° (NW) 2,962 10.5 34.1°
Reaches altitude 10° 14:29:37 10° 333° (NNW) 2,043 9.6 33.6°
Maximum altitude 14:33:19 22° 25° (NNE) 1,388 8.6 33.1°
Drops below altitude 10° 14:36:58 10° 77° (ENE) 2,021 9.4 32.6°
Sets 14:39:43 0° 92° (E) 2,922 10.2 32.2°
